Wind_Speed
28 29 29 30 31 32 32 32 33 34 34 35 36 37 38 38 39 40 41 42 43 44 44 45 46 47 47 48 48 48 48 48 48 48 48 47 47 46 46 45 45 44 44
29 29 30 31 32 32 33 34 34 35 36 36 37 37 38 39 40 40 41 43 44 45 46 47 48 48 49 50 50 51 51 51 51 51 51 51 51 50 50 49 49 48 47
29 30 31 31 32 32 33 34 35 36 37 37 38 38 39 40 40 41 42 43 44 45 46 47 48 49 50 51 52 52 53 53 53 54 54 54 54 54 53 53 52 52 51
30 30 31 32 32 33 34 35 36 37 38 38 39 39 40 41 41 42 43 44 45 46 47 48 49 50 51 52 52 53 54 54 55 55 56 56 56 56 56 56 56 55 55
31 31 32 33 33 34 35 36 37 37 38 39 40 40 41 41 42 43 44 45 46 47 48 49 50 51 52 53 54 54 55 55 55 56 57 57 58 58 58 58 58 58 58
32 32 33 34 35 35 37 37 38 39 40 41 41 41 41 42 43 45 45 46 47 49 50 51 52 53 54 54 55 56 56 57 57 57 58 58 59 59 59 60 60 60 60
33 34 35 36 36 37 38 39 40 40 42 43 43 43 43 44 45 46 47 48 49 50 51 53 54 55 56 57 58 58 59 60 60 61 61 61 61 61 62 62 62 63 63
35 36 37 38 38 39 40 41 42 42 43 45 46 45 44 44 47 48 49 50 52 53 54 55 56 57 58 60 61 62 63 63 64 65 65 65 66 66 66 66 66 66 66
37 38 39 40 41 41 42 43 44 44 45 46 48 49 49 48 48 48 50 52 54 55 57 58 60 61 62 63 64 65 67 68 69 69 70 71 71 71 71 71 71 71 71
38 39 40 41 42 43 44 45 46 47 47 48 50 51 53 54 53 52 51 53 55 57 59 61 62 64 65 67 68 69 70 71 73 74 75 76 76 77 77 76 76 76 76
40 41 42 43 44 45 46 47 48 49 50 51 51 53 54 56 58 59 57 56 57 59 61 63 64 66 68 70 72 73 74 75 77 78 79 80 81 82 82 82 82 81 81
42 43 44 45 46 47 48 49 50 51 52 53 54 55 57 58 60 62 62 62 62 62 64 65 67 70 72 74 75 77 78 79 81 82 83 84 85 86 87 87 87 87 86
44 46 46 47 48 49 50 51 52 53 54 56 57 58 60 61 63 65 66 67 67 67 68 69 71 73 75 77 78 80 81 82 83 84 85 86 87 88 89 90 91 91 91
46 47 48 49 50 51 53 54 54 56 57 58 59 61 62 64 66 68 70 71 72 71 71 72 74 76 78 79 80 81 82 83 84 84 85 85 86 87 88 89 91 92 93
48 48 49 50 51 53 54 55 56 57 58 60 61 63 65 67 68 70 72 74 76 76 75 75 77 77 78 79 79 80 81 81 82 82 82 82 81 82 83 84 86 87 89
49 50 51 52 53 54 55 57 58 59 60 62 64 66 67 69 70 72 74 75 78 80 79 78 78 78 78 77 76 76 76 76 76 76 76 76 75 75 75 75 76 77 79
51 52 52 53 54 56 57 59 60 61 63 64 66 68 69 71 72 74 75 77 78 80 80 77 77 76 75 73 71 71 70 70 69 69 69 68 67 67 66 66 67 67 69
52 53 54 55 56 57 59 60 62 63 65 66 68 69 71 72 73 75 76 77 78 78 78 76 72 71 70 69 68 66 65 64 63 62 62 61 60 60 60 60 61 61 62
53 54 56 57 58 60 61 62 63 65 66 68 69 70 72 73 74 75 76 76 75 75 74 72 69 67 65 64 63 61 60 59 58 57 57 56 56 56 56 56 56 57 57
55 56 57 58 60 61 63 64 65 67 68 69 70 72 73 75 75 75 75 74 73 72 70 69 66 63 61 60 59 58 57 55 54 54 53 53 52 52 52 52 52 52 52
57 58 59 61 62 63 64 65 67 68 69 71 72 73 74 75 75 75 74 72 70 68 67 65 63 60 58 56 55 54 53 52 51 51 50 50 49 48 48 48 48 49 49
58 60 61 62 64 65 66 68 69 70 71 72 73 74 75 75 74 73 71 69 68 66 64 62 59 56 54 52 51 50 50 49 47 46 46 45 46 45 45 45 45 45 45
60 61 63 64 65 67 69 70 71 72 73 74 75 75 75 73 72 70 67 66 64 62 60 58 55 52 50 49 48 47 46 44 42 41 42 41 41 41 42 42 42 42 41
62 63 65 66 68 69 70 72 73 74 75 76 76 75 73 71 69 67 65 62 59 57 56 54 52 49 48 47 46 44 43 41 39 38 39 37 37 38 38 38 39 39 38
64 65 66 68 69 70 72 74 75 76 76 75 74 73 71 69 66 64 62 59 55 53 51 50 49 47 45 44 43 42 40 38 36 35 36 35 34 35 35 35 36 36 35
65 67 68 70 71 72 74 75 77 77 76 74 72 70 68 66 63 60 58 55 52 50 48 47 46 44 43 41 40 39 38 36 35 34 34 34 33 33 32 32 33 32 32
Wind_Direction
285 284 283 282 282 281 280 279 279 278 277 276 276 275 275 274 274 272 271 271 270 269 269 268 268 268 267 267 267 267 267 267 267 268 267 267 267 267 267 267 267 267 267
286 284 283 283 283 282 282 281 280 279 278 278 277 276 275 275 275 274 274 273 272 271 270 270 269 268 268 267 267 267 267 267 267 267 267 267 267 267 267 267 267 267 267
287 286 284 283 283 282 282 282 281 280 280 279 278 277 276 276 275 274 274 273 273 273 272 272 271 270 270 269 268 268 267 267 267 267 267 267 267 267 267 267 267 267 267
288 287 285 285 284 284 283 282 282 281 280 279 278 278 278 277 277 276 275 274 274 273 273 272 272 271 271 270 269 269 268 267 266 266 266 266 266 266 266 266 266 266 266
289 288 287 286 285 285 284 283 283 282 281 280 280 279 278 278 277 276 276 275 275 274 274 273 273 272 271 271 270 270 269 268 267 267 266 266 265 265 265 265 265 264 265
289 288 288 287 286 286 285 284 283 283 282 281 280 280 279 279 278 277 277 277 276 275 275 275 274 274 273 272 272 271 270 269 269 268 267 266 266 265 265 264 264 264 263
290 289 289 288 288 287 286 286 285 284 284 283 281 280 280 280 279 278 278 277 277 277 276 276 275 274 274 273 273 272 271 270 270 269 268 267 266 266 265 265 264 263 263
292 291 290 289 289 288 288 288 287 286 286 285 284 282 281 280 280 280 280 280 279 278 278 277 277 276 275 274 273 273 272 272 271 270 269 268 267 266 265 265 264 263 263
293 292 291 290 290 290 289 289 289 288 288 288 287 286 284 281 278 278 279 279 279 279 279 279 278 277 276 275 274 274 273 273 272 271 271 270 269 267 266 265 264 263 263
294 294 293 292 291 290 290 290 290 290 289 289 288 288 287 286 284 280 278 278 278 279 279 279 278 278 277 276 275 274 274 273 272 272 271 270 269 268 267 266 265 264 263
294 294 293 293 292 291 291 291 291 291 290 290 289 289 288 288 288 286 283 281 281 280 280 280 279 278 277 277 276 275 274 273 272 272 271 270 269 268 267 266 265 264 263
295 295 294 294 293 293 292 292 292 292 292 292 291 290 290 290 289 288 287 286 284 283 282 282 281 281 280 279 278 276 275 274 273 272 271 270 269 268 267 266 265 264 263
296 296 295 295 294 294 294 293 293 293 293 293 292 292 292 291 291 290 289 288 287 286 285 285 284 283 282 281 280 278 277 276 274 273 272 270 269 268 267 265 264 263 262
297 296 296 295 295 295 295 294 294 294 294 293 293 293 293 293 292 292 291 290 288 287 287 287 286 286 284 283 282 280 279 278 276 275 273 272 270 269 267 266 264 263 262
297 296 296 296 296 295 295 295 295 295 295 295 294 294 294 294 294 293 293 292 291 290 289 289 288 287 285 284 283 281 280 279 278 276 275 274 272 271 269 267 266 264 262
297 297 297 297 297 297 296 296 296 296 296 296 296 296 296 296 295 295 294 294 294 293 292 291 290 288 287 286 284 282 281 280 279 278 276 275 273 272 270 268 267 265 263
298 298 298 298 298 298 298 298 297 297 297 297 297 297 297 297 297 296 296 296 295 294 293 292 291 290 289 287 285 284 283 281 280 279 277 276 274 272 270 269 267 265 264
299 299 299 299 299 299 299 299 299 299 299 299 299 299 299 298 298 298 297 297 296 295 294 293 292 290 289 288 286 284 283 282 281 279 278 276 274 272 270 269 267 266 265
300 300 300 300 300 300 300 300 300 301 301 301 301 300 300 300 300 299 299 298 297 296 295 294 293 291 289 288 286 284 283 282 281 279 278 276 274 272 271 269 268 267 265
301 301 302 302 302 302 302 302 302 302 302 302 302 302 302 302 301 300 299 298 297 296 295 294 293 291 289 287 286 284 283 282 280 279 277 275 273 272 271 269 268 266 265
302 302 303 303 303 303 303 303 303 303 303 303 303 303 303 303 302 301 300 298 297 296 295 294 292 291 289 287 285 284 282 281 280 278 277 275 273 272 270 269 268 267 265
303 304 304 304 304 304 304 304 304 304 304 304 304 304 304 303 302 301 300 299 298 296 295 294 292 291 289 287 285 284 283 281 279 277 276 274 273 271 270 269 268 267 265
304 304 304 304 305 305 305 305 305 305 305 306 305 305 304 303 302 300 299 298 297 296 295 294 293 291 289 287 286 284 283 282 280 277 275 274 272 270 269 268 267 267 266
304 305 305 305 305 305 305 305 306 306 307 306 306 305 304 303 301 300 298 297 296 295 294 293 292 291 289 288 286 285 282 281 279 277 276 274 271 270 268 268 267 266 265
305 305 306 306 306 306 306 306 307 307 307 307 306 305 304 302 301 299 298 297 295 294 293 292 292 290 289 288 286 284 282 280 278 277 276 274 271 269 268 268 267 266 265
306 306 307 307 307 307 307 307 307 307 307 307 306 304 303 301 300 298 297 296 295 293 292 291 290 289 288 286 285 283 281 280 279 277 275 273 271 269 268 266 266 266 264
Height
5833 5831 5829 5827 5826 5824 5822 5820 5819 5817 5815 5814 5812 5810 5809 5807 5806 5805 5803 5802 5800 5799 5798 5797 5796 5795 5795 5794 5794 5793 5793 5793 5792 5792 5792 5792 5792 5792 5792 5793 5793 5793 5794
5827 5825 5823 5821 5819 5817 5815 5813 5811 5809 5808 5806 5804 5802 5801 5799 5797 5795 5794 5792 5790 5789 5788 5787 5786 5785 5784 5783 5783 5782 5782 5782 5781 5781 5781 5781 5781 5782 5782 5782 5782 5783 5783
5821 5819 5817 5815 5813 5811 5808 5806 5804 5802 5800 5798 5796 5794 5792 5790 5788 5786 5784 5782 5780 5779 5777 5776 5775 5774 5773 5772 5771 5771 5770 5770 5770 5770 5769 5769 5770 5770 5770 5771 5771 5772 5772
5814 5812 5810 5807 5805 5803 5801 5798 5796 5794 5792 5790 5788 5786 5784 5782 5779 5777 5775 5773 5771 5769 5766 5765 5763 5762 5761 5760 5759 5758 5758 5758 5757 5757 5757 5757 5757 5757 5757 5758 5759 5759 5760
5807 5805 5802 5800 5798 5795 5793 5790 5788 5786 5783 5781 5779 5777 5774 5772 5770 5767 5765 5762 5760 5758 5756 5754 5752 5750 5749 5747 5746 5745 5745 5744 5744 5744 5744 5743 5743 5744 5744 5745 5745 5746 5747
5800 5797 5795 5792 5790 5787 5784 5782 5779 5777 5774 5772 5770 5768 5765 5763 5759 5757 5754 5752 5749 5747 5744 5742 5740 5738 5736 5735 5733 5732 5731 5730 5730 5730 5730 5730 5730 5730 5730 5731 5731 5732 5733
5793 5790 5787 5784 5781 5779 5775 5773 5770 5767 5764 5761 5760 5758 5756 5753 5749 5746 5743 5741 5738 5735 5732 5730 5728 5725 5723 5721 5719 5718 5717 5716 5715 5715 5714 5714 5715 5715 5715 5716 5716 5717 5718
5785 5782 5779 5776 5772 5769 5766 5763 5760 5757 5754 5750 5748 5746 5746 5744 5739 5736 5732 5728 5725 5722 5719 5716 5714 5711 5709 5707 5704 5702 5701 5700 5699 5698 5698 5698 5698 5698 5699 5700 5700 5701 5702
5776 5773 5770 5766 5763 5760 5756 5753 5749 5746 5744 5739 5735 5732 5730 5730 5728 5727 5721 5717 5712 5709 5705 5702 5698 5696 5693 5691 5688 5686 5684 5682 5681 5680 5679 5679 5679 5679 5680 5681 5682 5683 5685
5767 5764 5760 5757 5753 5749 5746 5742 5738 5735 5732 5728 5724 5719 5715 5712 5710 5711 5710 5705 5700 5696 5692 5687 5683 5679 5676 5673 5670 5668 5666 5664 5662 5660 5659 5658 5658 5658 5659 5660 5662 5663 5665
5758 5754 5751 5747 5743 5739 5735 5731 5727 5723 5719 5715 5712 5707 5703 5698 5693 5690 5691 5690 5686 5681 5676 5672 5667 5662 5657 5654 5651 5648 5646 5643 5641 5639 5638 5636 5635 5635 5636 5637 5639 5641 5643
5748 5744 5740 5736 5732 5728 5724 5719 5715 5711 5706 5702 5697 5693 5688 5684 5679 5674 5671 5669 5667 5664 5659 5654 5648 5642 5637 5633 5629 5626 5623 5620 5618 5616 5614 5613 5612 5611 5611 5612 5613 5616 5618
5738 5734 5729 5725 5721 5716 5712 5707 5703 5698 5693 5688 5683 5678 5673 5668 5662 5657 5652 5649 5647 5644 5640 5635 5627 5621 5615 5610 5606 5601 5598 5595 5592 5590 5589 5587 5586 5585 5585 5585 5586 5588 5591
5728 5723 5718 5714 5709 5704 5699 5695 5690 5685 5680 5674 5669 5663 5658 5651 5645 5639 5633 5628 5625 5623 5619 5614 5606 5598 5591 5586 5580 5575 5572 5568 5565 5563 5561 5559 5558 5557 5557 5557 5558 5560 5562
5717 5712 5707 5702 5697 5692 5687 5682 5676 5671 5665 5659 5653 5647 5641 5634 5628 5621 5614 5607 5601 5598 5597 5592 5583 5575 5567 5561 5555 5550 5545 5541 5538 5535 5533 5532 5530 5529 5529 5529 5530 5531 5533
5705 5700 5695 5690 5684 5679 5673 5668 5662 5656 5650 5644 5637 5631 5624 5617 5609 5602 5594 5587 5579 5572 5570 5568 5558 5550 5542 5536 5530 5525 5521 5516 5513 5510 5507 5506 5504 5503 5503 5503 5503 5504 5506
5693 5687 5682 5677 5671 5665 5659 5653 5647 5641 5634 5628 5620 5613 5606 5598 5590 5582 5574 5566 5558 5549 5544 5542 5533 5525 5518 5512 5507 5501 5497 5493 5490 5487 5484 5482 5481 5480 5480 5480 5480 5481 5483
5680 5674 5669 5663 5657 5651 5645 5638 5632 5625 5618 5611 5603 5595 5587 5578 5571 5562 5553 5545 5536 5527 5520 5517 5512 5504 5497 5490 5485 5481 5476 5473 5469 5466 5464 5462 5461 5460 5459 5459 5460 5461 5462
5667 5661 5655 5649 5643 5636 5629 5623 5616 5608 5601 5593 5584 5576 5568 5559 5551 5541 5532 5523 5515 5506 5498 5493 5490 5484 5477 5470 5465 5461 5457 5454 5451 5448 5445 5444 5442 5441 5441 5441 5441 5442 5443
5653 5647 5641 5634 5627 5620 5613 5606 5599 5591 5583 5574 5566 5557 5548 5539 5530 5521 5512 5503 5494 5486 5479 5472 5468 5463 5458 5452 5446 5443 5440 5436 5433 5430 5428 5426 5425 5424 5424 5424 5424 5424 5425
5639 5633 5626 5619 5611 5604 5597 5589 5581 5574 5565 5557 5547 5537 5528 5518 5508 5499 5490 5482 5474 5467 5460 5453 5449 5444 5440 5434 5429 5425 5422 5420 5417 5414 5412 5410 5409 5409 5408 5407 5407 5408 5409
5625 5618 5611 5603 5596 5587 5579 5571 5563 5555 5547 5537 5528 5518 5508 5498 5488 5479 5470 5462 5454 5447 5440 5435 5430 5426 5422 5417 5412 5409 5406 5404 5402 5400 5396 5396 5394 5394 5392 5392 5392 5393 5393
5611 5603 5595 5587 5579 5570 5561 5553 5544 5536 5527 5517 5507 5498 5488 5478 5468 5460 5452 5444 5436 5428 5422 5416 5412 5409 5405 5401 5397 5394 5390 5388 5387 5385 5383 5382 5380 5379 5378 5378 5378 5379 5379
5596 5588 5580 5571 5563 5553 5543 5534 5525 5516 5507 5497 5487 5477 5467 5458 5448 5440 5434 5427 5420 5413 5406 5400 5396 5393 5389 5385 5382 5379 5376 5374 5374 5372 5369 5369 5368 5367 5366 5365 5365 5365 5366
5580 5572 5563 5554 5545 5536 5525 5515 5505 5497 5488 5478 5467 5457 5446 5438 5430 5421 5415 5410 5405 5398 5392 5386 5382 5378 5374 5371 5367 5365 5363 5361 5361 5360 5357 5356 5356 5355 5355 5354 5353 5353 5354
5564 5556 5547 5537 5527 5517 5507 5496 5485 5476 5468 5459 5449 5438 5428 5419 5412 5404 5397 5392 5388 5383 5378 5373 5369 5364 5361 5357 5354 5352 5350 5349 5348 5348 5346 5345 5344 5344 5344 5344 5343 5343 5344